TimeEDT,TemperatureF,Dew PointF,Humidity,Sea Level PressureIn,VisibilityMPH,Wind Direction,Wind SpeedMPH,Gust SpeedMPH,PrecipitationIn,Events,Conditions,WindDirDegrees,DateUTC
12:52 AM,72.0,70.0,93,30.08,10.0,Calm,Calm,-,N/A,,Clear,0,2013-07-02 04:52:00
1:52 AM,72.0,70.0,93,30.09,8.0,Calm,Calm,-,N/A,,Mostly Cloudy,0,2013-07-02 05:52:00
2:10 AM,71.6,69.8,94,30.09,10.0,Calm,Calm,-,N/A,,Mostly Cloudy,0,2013-07-02 06:10:00
2:43 AM,73.4,69.8,88,30.09,10.0,SSE,3.5,-,N/A,,Mostly Cloudy,150,2013-07-02 06:43:00
2:52 AM,72.0,70.0,93,30.09,10.0,Calm,Calm,-,N/A,,Mostly Cloudy,0,2013-07-02 06:52:00
3:52 AM,73.0,71.1,93,30.10,10.0,SSE,3.5,-,0.00,Rain,Light Rain,150,2013-07-02 07:52:00
4:52 AM,73.0,71.1,93,30.10,10.0,SSE,4.6,-,0.00,,Mostly Cloudy,150,2013-07-02 08:52:00
5:52 AM,73.0,71.1,93,30.12,10.0,Calm,Calm,-,N/A,,Overcast,0,2013-07-02 09:52:00
6:52 AM,73.9,71.1,91,30.13,10.0,SE,4.6,-,N/A,,Overcast,140,2013-07-02 10:52:00
7:03 AM,73.4,71.6,94,30.13,10.0,SSE,4.6,-,N/A,,Mostly Cloudy,150,2013-07-02 11:03:00
7:11 AM,73.4,71.6,94,30.14,10.0,SSE,3.5,-,N/A,,Mostly Cloudy,160,2013-07-02 11:11:00
7:18 AM,73.4,71.6,94,30.14,10.0,SSE,3.5,-,N/A,,Mostly Cloudy,160,2013-07-02 11:18:00
7:31 AM,73.4,71.6,94,30.14,10.0,SE,4.6,-,N/A,,Overcast,140,2013-07-02 11:31:00
7:39 AM,73.4,71.6,94,30.14,9.0,SSE,3.5,-,N/A,,Overcast,150,2013-07-02 11:39:00
7:52 AM,73.9,71.1,91,30.14,10.0,Calm,Calm,-,N/A,,Overcast,0,2013-07-02 11:52:00
8:38 AM,75.2,71.6,89,30.15,10.0,SE,4.6,-,0.00,,Overcast,130,2013-07-02 12:38:00
8:52 AM,75.0,72.0,90,30.14,10.0,SE,4.6,-,0.00,,Overcast,130,2013-07-02 12:52:00
9:12 AM,75.2,71.6,89,30.14,10.0,SE,4.6,-,0.01,,Overcast,130,2013-07-02 13:12:00
10:15 AM,77.0,71.6,83,30.14,10.0,Calm,Calm,-,N/A,,Overcast,0,2013-07-02 14:15:00
10:52 AM,77.0,72.0,84,30.15,10.0,Calm,Calm,-,N/A,,Overcast,0,2013-07-02 14:52:00
11:52 AM,79.0,72.0,79,30.15,10.0,South,5.8,-,0.00,,Overcast,180,2013-07-02 15:52:00
12:04 PM,80.6,71.6,74,30.15,10.0,South,4.6,-,0.00,Rain,Light Rain,190,2013-07-02 16:04:00
12:37 PM,80.6,71.6,74,30.16,10.0,SW,8.1,-,0.00,,Mostly Cloudy,230,2013-07-02 16:37:00
12:52 PM,81.0,71.1,72,30.15,10.0,SSW,9.2,-,0.00,,Overcast,210,2013-07-02 16:52:00
1:03 PM,80.6,71.6,74,30.15,10.0,SSW,8.1,-,N/A,,Overcast,210,2013-07-02 17:03:00
1:10 PM,80.6,71.6,74,30.15,10.0,SSW,5.8,-,N/A,,Overcast,200,2013-07-02 17:10:00
1:52 PM,81.0,70.0,69,30.15,10.0,SSW,9.2,-,N/A,,Overcast,210,2013-07-02 17:52:00
2:52 PM,84.0,71.1,65,30.14,10.0,South,8.1,17.3,N/A,,Mostly Cloudy,180,2013-07-02 18:52:00
3:52 PM,84.0,70.0,63,30.13,10.0,WSW,8.1,-,N/A,,Mostly Cloudy,240,2013-07-02 19:52:00
4:52 PM,84.9,71.1,63,30.12,10.0,South,9.2,17.3,N/A,,Clear,190,2013-07-02 20:52:00
5:52 PM,82.9,71.1,67,30.13,10.0,South,5.8,-,N/A,,Partly Cloudy,170,2013-07-02 21:52:00
6:52 PM,72.0,66.0,81,30.17,9.0,ENE,6.9,16.1,N/A,,Scattered Clouds,60,2013-07-02 22:52:00
7:25 PM,69.8,64.4,83,30.18,8.0,ENE,6.9,-,N/A,,Mostly Cloudy,60,2013-07-02 23:25:00
7:52 PM,68.0,64.0,87,30.18,9.0,ENE,5.8,-,N/A,,Overcast,70,2013-07-02 23:52:00
8:52 PM,66.0,63.0,90,30.20,7.0,East,4.6,-,N/A,,Overcast,90,2013-07-03 00:52:00
9:31 PM,64.4,62.6,94,30.22,5.0,ENE,3.5,-,N/A,,Overcast,70,2013-07-03 01:31:00
9:52 PM,64.0,62.1,93,30.22,5.0,ENE,3.5,-,N/A,,Overcast,70,2013-07-03 01:52:00
10:52 PM,63.0,62.1,97,30.21,2.5,NE,3.5,-,N/A,,Overcast,40,2013-07-03 02:52:00
11:45 PM,62.6,60.8,94,30.22,2.5,Calm,Calm,-,N/A,,Overcast,0,2013-07-03 03:45:00
11:52 PM,63.0,61.0,93,30.22,3.0,ENE,3.5,-,N/A,,Overcast,70,2013-07-03 03:52:00